{"data":{"norad_id":46112,"intl_designator":"2020-056A","name":"BSAT-4B","alt_names":[],"object_type":"PAYLOAD","status":"ACTIVE","operator":null,"country":"JPN","launch_date":"2020-08-15","launch_site_code":"FRGUI","launch_vehicle":null,"mission":null,"orbit_class":"UNKNOWN","rcs_meters":null,"size_class":null,"mass_kg":null,"dimensions":null,"purposes":["comms"],"wikipedia_slug":null,"has_3d_model":false,"image_url":null,"decayed_at":null,"tle_current":{"epoch":"2026-09-20T00:20:08.946816Z","epoch_age_seconds":63924,"freshness":"FRESH","line1":"1 46112U 20056A   26263.01399244 -.00000354  00000+0  00000+0 0  9999","line2":"2 46112   0.0198 160.0304 0004174 355.3305 318.4261  1.00270819 22342","mean_motion":1.00270819,"eccentricity":0.0004174,"inclination_deg":0.0198,"raan_deg":160.0304,"arg_perigee_deg":355.3305,"mean_anomaly_deg":318.4261,"bstar":0,"rev_number":2234,"period_min":1436.1107392571,"perigee_km":35769.266096076,"apogee_km":35804.465440387,"semimajor_km":42165.002768232,"source":"CELESTRAK","updated_at":"2026-09-20T09:00:35.294943Z"}}}